EN

Hourly Weather Abeokuta

Today, 4 December, Friday

Time Temperature Precipitation Wind Pressure Humidity
00:00 +27°C° 0 mm 1 mps 752 mmHg 92%
01:00 +26°C° 0 mm 1 mps 751 mmHg 94%
02:00 +26°C° 0 mm 1 mps 751 mmHg 95%
03:00 +26°C° 0 mm 1 mps 751 mmHg 97%
04:00 +26°C° 0 mm 1 mps 751 mmHg 97%
05:00 +23°C° 0 mm 0 mps 752 mmHg 97%
06:00 +23°C° 0 mm 0 mps 752 mmHg 97%
07:00 +27°C° 0 mm 1 mps 753 mmHg 87%
08:00 +29°C° 0 mm 1 mps 753 mmHg 78%
09:00 +31°C° 0 mm 2 mps 753 mmHg 68%
10:00 +33°C° 0 mm 1 mps 753 mmHg 58%
11:00 +35°C° 0 mm 1 mps 752 mmHg 48%
12:00 +36°C° 0 mm 0 mps 752 mmHg 37%
13:00 +36°C° 0 mm 0 mps 751 mmHg 35%
14:00 +39°C° 0 mm 1 mps 750 mmHg 33%
15:00 +37°C° 0 mm 1 mps 750 mmHg 32%
16:00 +36°C° 0 mm 2 mps 750 mmHg 42%
17:00 +34°C° 0 mm 2 mps 750 mmHg 52%
18:00 +31°C° 0 mm 3 mps 751 mmHg 62%
19:00 +30°C° 0 mm 3 mps 751 mmHg 68%
20:00 +29°C° 0 mm 3 mps 752 mmHg 75%
21:00 +28°C° 0 mm 2 mps 752 mmHg 81%
22:00 +28°C° 0 mm 2 mps 752 mmHg 84%
23:00 +27°C° 0 mm 1 mps 752 mmHg 88%

Tomorrow, 5 December, Saturday

Time Temperature Precipitation Wind Pressure Humidity
00:00 +27°C° 0 mm 1 mps 752 mmHg 91%
01:00 +27°C° 0 mm 1 mps 751 mmHg 92%
02:00 +27°C° 0 mm 1 mps 751 mmHg 93%
03:00 +27°C° 0 mm 1 mps 751 mmHg 93%
04:00 +27°C° 0 mm 1 mps 751 mmHg 91%
05:00 +27°C° 0 mm 1 mps 751 mmHg 89%
06:00 +28°C° 0 mm 1 mps 752 mmHg 86%
07:00 +29°C° 0 mm 1 mps 752 mmHg 80%
08:00 +30°C° 0 mm 1 mps 753 mmHg 74%
09:00 +31°C° 0 mm 1 mps 753 mmHg 68%
10:00 +32°C° 0 mm 1 mps 753 mmHg 63%
11:00 +33°C° 0 mm 1 mps 752 mmHg 59%
12:00 +34°C° 0 mm 1 mps 752 mmHg 55%
13:00 +34°C° 0 mm 1 mps 751 mmHg 52%
14:00 +35°C° 0 mm 1 mps 750 mmHg 49%
15:00 +35°C° 0 mm 1 mps 750 mmHg 46%
16:00 +33°C° 0 mm 1 mps 750 mmHg 55%
17:00 +31°C° 0 mm 2 mps 750 mmHg 63%
18:00 +30°C° 0 mm 2 mps 750 mmHg 71%
19:00 +29°C° 0 mm 2 mps 751 mmHg 74%
20:00 +28°C° 0 mm 2 mps 751 mmHg 78%
21:00 +28°C° 0 mm 2 mps 752 mmHg 82%
22:00 +27°C° 0 mm 2 mps 752 mmHg 84%
23:00 +27°C° 0 mm 1 mps 752 mmHg 87%

Day after tomorrow, 6 December, Sunday

Time Temperature Precipitation Wind Pressure Humidity
00:00 +26°C° 0 mm 1 mps 751 mmHg 90%
01:00 +26°C° 0 mm 1 mps 751 mmHg 91%
02:00 +26°C° 0 mm 1 mps 751 mmHg 93%
03:00 +26°C° 0 mm 1 mps 751 mmHg 94%
04:00 +26°C° 0 mm 1 mps 751 mmHg 95%
05:00 +26°C° 0 mm 1 mps 751 mmHg 95%
06:00 +23°C° 0 mm 0 mps 751 mmHg 96%
07:00 +27°C° 0 mm 1 mps 752 mmHg 86%
08:00 +29°C° 0 mm 1 mps 752 mmHg 76%
09:00 +31°C° 0 mm 2 mps 753 mmHg 66%
10:00 +32°C° 0 mm 1 mps 752 mmHg 63%
11:00 +33°C° 0 mm 1 mps 751 mmHg 60%
12:00 +33°C° 0 mm 1 mps 751 mmHg 57%
13:00 +33°C° 0.2 mm 1 mps 750 mmHg 56%
14:00 +35°C° 0.2 mm 2 mps 750 mmHg 56%
15:00 +35°C° 0.2 mm 2 mps 749 mmHg 55%
16:00 +32°C° 0.1 mm 2 mps 749 mmHg 62%
17:00 +31°C° 0.1 mm 2 mps 750 mmHg 69%
18:00 +29°C° 0.1 mm 2 mps 750 mmHg 76%
19:00 +28°C° 0 mm 2 mps 751 mmHg 79%
20:00 +28°C° 0 mm 2 mps 751 mmHg 82%
21:00 +27°C° 0 mm 2 mps 752 mmHg 85%
22:00 +27°C° 0 mm 2 mps 752 mmHg 87%
23:00 +27°C° 0 mm 1 mps 752 mmHg 89%

7 December, Monday

Time Temperature Precipitation Wind Pressure Humidity
00:00 +26°C° 0 mm 1 mps 751 mmHg 91%
01:00 +26°C° 0 mm 1 mps 751 mmHg 92%
02:00 +26°C° 0 mm 1 mps 751 mmHg 92%
03:00 +26°C° 0 mm 1 mps 751 mmHg 93%
04:00 +26°C° 0 mm 1 mps 751 mmHg 94%
05:00 +25°C° 0 mm 1 mps 752 mmHg 96%
06:00 +25°C° 0 mm 1 mps 752 mmHg 97%
07:00 +27°C° 0 mm 1 mps 752 mmHg 88%
08:00 +29°C° 0 mm 1 mps 753 mmHg 79%
09:00 +31°C° 0 mm 2 mps 753 mmHg 70%
10:00 +31°C° 0 mm 2 mps 753 mmHg 67%
11:00 +32°C° 0 mm 2 mps 752 mmHg 65%
12:00 +32°C° 0 mm 2 mps 752 mmHg 62%
13:00 +34°C° 0 mm 2 mps 751 mmHg 60%
14:00 +34°C° 0 mm 2 mps 750 mmHg 58%
15:00 +33°C° 0 mm 1 mps 750 mmHg 57%
16:00 +32°C° 0 mm 2 mps 750 mmHg 63%
17:00 +31°C° 0 mm 2 mps 751 mmHg 68%
18:00 +29°C° 0 mm 2 mps 751 mmHg 74%
19:00 +29°C° 0 mm 2 mps 751 mmHg 77%
20:00 +28°C° 0 mm 2 mps 752 mmHg 80%
21:00 +27°C° 0 mm 1 mps 752 mmHg 83%
22:00 +27°C° 0 mm 1 mps 752 mmHg 86%
23:00 +27°C° 0 mm 1 mps 752 mmHg 88%

8 December, Tuesday

Time Temperature Precipitation Wind Pressure Humidity
00:00 +26°C° 0 mm 1 mps 752 mmHg 91%
01:00 +26°C° 0 mm 1 mps 752 mmHg 92%
02:00 +26°C° 0 mm 1 mps 751 mmHg 93%
03:00 +26°C° 0 mm 1 mps 751 mmHg 95%
04:00 +23°C° 0 mm 0 mps 751 mmHg 95%
05:00 +23°C° 0 mm 0 mps 752 mmHg 96%
06:00 +23°C° 0 mm 0 mps 752 mmHg 96%
07:00 +27°C° 0 mm 1 mps 752 mmHg 87%
08:00 +29°C° 0 mm 1 mps 753 mmHg 78%
09:00 +31°C° 0 mm 2 mps 753 mmHg 68%
10:00 +32°C° 0 mm 2 mps 753 mmHg 64%
11:00 +33°C° 0 mm 1 mps 752 mmHg 60%
12:00 +34°C° 0 mm 1 mps 751 mmHg 55%
13:00 +34°C° 0.2 mm 1 mps 751 mmHg 55%
14:00 +35°C° 0.2 mm 2 mps 750 mmHg 54%
15:00 +35°C° 0.2 mm 2 mps 750 mmHg 53%
16:00 +32°C° 0 mm 2 mps 750 mmHg 60%
17:00 +31°C° 0 mm 2 mps 750 mmHg 68%
18:00 +29°C° 0 mm 3 mps 751 mmHg 75%
19:00 +29°C° 0 mm 2 mps 751 mmHg 78%
20:00 +28°C° 0 mm 2 mps 752 mmHg 81%
21:00 +28°C° 0 mm 2 mps 752 mmHg 84%
22:00 +27°C° 0 mm 2 mps 752 mmHg 86%
23:00 +27°C° 0 mm 2 mps 752 mmHg 88%

9 December, Wednesday

Time Temperature Precipitation Wind Pressure Humidity
00:00 +27°C° 0 mm 2 mps 752 mmHg 91%
01:00 +26°C° 0 mm 1 mps 752 mmHg 92%
02:00 +26°C° 0 mm 1 mps 751 mmHg 93%
03:00 +26°C° 0 mm 1 mps 751 mmHg 95%
04:00 +26°C° 0.1 mm 1 mps 751 mmHg 94%
05:00 +26°C° 0.1 mm 1 mps 752 mmHg 93%
06:00 +27°C° 0.1 mm 1 mps 752 mmHg 92%
07:00 +28°C° 0.1 mm 1 mps 752 mmHg 85%
08:00 +29°C° 0.1 mm 2 mps 753 mmHg 78%
09:00 +31°C° 0.1 mm 2 mps 753 mmHg 71%
10:00 +32°C° 0.1 mm 2 mps 753 mmHg 66%
11:00 +34°C° 0.1 mm 2 mps 752 mmHg 61%
12:00 +35°C° 0.1 mm 2 mps 752 mmHg 56%
13:00 +34°C° 0.6 mm 2 mps 751 mmHg 58%
14:00 +34°C° 0.6 mm 2 mps 751 mmHg 59%
15:00 +34°C° 0.6 mm 2 mps 750 mmHg 61%
16:00 +31°C° 0.8 mm 2 mps 750 mmHg 68%
17:00 +30°C° 0.8 mm 2 mps 751 mmHg 75%
18:00 +28°C° 0.8 mm 1 mps 751 mmHg 82%
19:00 +28°C° 0 mm 2 mps 752 mmHg 85%
20:00 +27°C° 0 mm 2 mps 752 mmHg 87%
21:00 +27°C° 0 mm 2 mps 753 mmHg 89%
22:00 +26°C° 0 mm 2 mps 753 mmHg 90%
23:00 +26°C° 0 mm 1 mps 753 mmHg 92%
Show more